Home   Weather   Hiroshima   Past weeks
Flag for Japan

Past Weather in Hiroshima, Japan — Yesterday and Last 2 Weeks

Now
53 °F

Mostly cloudy.


Feels Like: 49 °F
Forecast: 65 / 43 °F
Wind: 13 mph from South

Location: Iwakuni Marine Corps Air Station

Current Time: Mar 25, 2019 at 12:47:05 pm

Latest Report: Mar 25, 2019 at 11:55 am


Visibility: N/A

Pressure: 30.10 "Hg

Humidity: 59%

Dew Point: 39 °F

Location of HiroshimaLocation

Past Weather in Hiroshima — Graph

°F

Hiroshima Temperature Yesterday

Maximum temperature yesterday: 55 °F (at 4:55 pm)
Minimum temperature yesterday: 42 °F (at 4:55 am)
Average temperature yesterday: 48 °F

High & Low Weather Summary for the Past Weeks

 TemperatureHumidityPressure
High74 °F (Mar 21, 2:55 pm)100% (Mar 11, 7:55 am)30.27 "Hg (Mar 11, 7:55 am)
Low35 °F (Mar 11, 7:55 am)26% (Mar 15, 2:55 pm)29.57 "Hg (Mar 11, 1:13 am)
Average52 °F64%29.99 "Hg
* Reported Mar 10 11:55 am — Mar 25 10:55 am, Hiroshima. Weather by CustomWeather, © 2019

Note: Actual official high and low records may vary slightly from our data, if they occured in-between our weather recording intervals... More about our weather records

Advertising

Hiroshima Weather History for the Previous 24 Hours

Scroll right to see more
 ConditionsComfort  
Time TempWeatherWind HumidityBarometerVisibility
10:55 am
Mon, Mar 25
53 °FMostly cloudy.3 mph55%30.12 "HgN/A
9:55 am50 °FMostly cloudy.5 mph67%30.13 "HgN/A
8:55 am50 °FPartly sunny.5 mph63%30.12 "HgN/A
7:55 am46 °FPartly sunny.3 mph71%30.11 "HgN/A
6:55 am41 °FPartly sunny.3 mph76%30.10 "HgN/A
5:55 am40 °FPassing clouds.5 mph77%30.10 "HgN/A
4:55 am42 °FPartly cloudy.3 mph71%30.09 "HgN/A
3:55 am42 °FPassing clouds.5 mph71%30.09 "HgN/A
2:55 am41 °FPassing clouds.5 mph67%30.10 "HgN/A
1:55 am43 °FPassing clouds.7 mph62%30.11 "HgN/A
1:08 am43 °FPassing clouds.6 mph61%30.11 "HgN/A
9:55 pm
Sun, Mar 24
48 °FPassing clouds.6 mph48%30.13 "HgN/A
8:55 pm49 °FPassing clouds.5 mph61%30.13 "HgN/A
7:55 pm50 °FPassing clouds.13 mph61%30.11 "HgN/A
6:55 pm52 °FPassing clouds.6 mph41%30.09 "HgN/A
5:55 pm53 °FScattered clouds.9 mph43%30.07 "HgN/A
4:55 pm55 °FScattered clouds.12 mph44%30.06 "HgN/A
3:55 pm53 °FScattered clouds.15 mph52%30.07 "HgN/A
2:55 pm54 °FScattered clouds.14 mph51%30.08 "HgN/A
1:55 pm52 °FBroken clouds.15 mph55%30.09 "HgN/A
12:55 pm50 °FBroken clouds.14 mph54%30.13 "HgN/A
Weather by CustomWeather, © 2019

See weather overview